Nenana, AK

9:07 AM AKDT on October 19, 2017 (GMT -0800)
Nenana Municipal

Weather History for PANN - December, 2013

Change the Weather History Date:

Sunday, December 15, 2013

  Actual Average Record
Temperature  
Mean Temperature 12 °F -  
Max Temperature 39 °F 7 °F 54 °F (1962)
Min Temperature -20 °F -18 °F -43 °F (2012)
Degree Days  
Heating Degree Days 52    
Moisture  
Dew Point -11 °F    
Average Humidity 73    
Maximum Humidity 100    
Minimum Humidity 68    
Precipitation  
Precipitation 0.12 in - - ()
Sea Level Pressure  
Sea Level Pressure 29.83 in    
Wind  
Wind Speed 7 mph (NW)    
Max Wind Speed 10 mph    
Max Gust Speed -    
Visibility 4 miles    
Events Rain , Snow    
Averages and records for this station are not official NWS values.
T = Trace of Precipitation, MM = Missing Value Source: NWS Daily Summary

Daily Weather History Graph

Daily Weather History Graph

Search for Another Location

Airport or City:

Trip Planner

Search our weather history database for the weather conditions in past years. The results will help you decide how hot, cold, wet, or windy it might be!

Date:

Astronomy

Dec. 15, 2013 Rise Set
Actual Time 10:52 AM AKST 2:50 PM AKST
Civil Twilight 9:30 AM AKST 4:12 PM AKST
Nautical Twilight 8:20 AM AKST 5:22 PM AKST
Astronomical Twilight 7:19 AM AKST 6:23 PM AKST
Moon 2:41 PM AKST (12/15) 8:36 AM AKST (12/15)
Length of Visible Light 6h 41m
Length of Day
3h 58m
Waxing Gibbous, 98% of the Moon is Illuminated
Dec 15
Waxing Gibbous
Dec 17
Full
Dec 25
Last Quarter
Jan 1
New
Jan 7
First Quarter

Hourly Weather History & Observations

Time (AKST) Temp. Windchill Dew Point Humidity Pressure Visibility Wind Dir Wind Speed Gust Speed Precip Events Conditions
12:16 AM -5.1 °F -21.5 °F -13.0 °F 69% 29.43 in 3.0 mi NW 9.2 mph - 0.00 in   Overcast
12:53 AM -5.1 °F -19.1 °F -13.0 °F 69% 29.51 in 3.0 mi Variable 6.9 mph - 0.00 in   Haze
1:43 AM -5.1 °F -20.4 °F -11.9 °F 72% 29.50 in 2.5 mi WNW 8.1 mph - 0.01 in   Overcast
1:53 AM -5.1 °F -19.1 °F -11.9 °F 72% 29.55 in 2.0 mi WNW 6.9 mph - 0.01 in   Haze
2:04 AM -5.1 °F -19.1 °F -11.9 °F 72% 29.50 in 1.8 mi NW 6.9 mph - 0.00 in Snow Light Snow
2:11 AM -5.1 °F -20.4 °F -11.9 °F 72% 29.51 in 2.0 mi WNW 8.1 mph - 0.00 in Snow Light Snow
2:27 AM -5.1 °F -20.4 °F -13.0 °F 69% 29.52 in 3.0 mi WNW 8.1 mph - 0.01 in   Haze
2:53 AM -5.1 °F -17.6 °F -11.9 °F 72% 29.59 in 5.0 mi Variable 5.8 mph - 0.01 in   Haze
3:51 AM -5.8 °F -18.4 °F -13.0 °F 71% 29.59 in 2.0 mi WNW 5.8 mph - 0.00 in Snow Light Snow
3:53 AM -6.0 °F -16.9 °F -13.0 °F 72% 29.64 in 2.0 mi NW 4.6 mph - 0.00 in Snow Light Snow
4:06 AM -6.0 °F -21.5 °F -14.1 °F 68% 29.60 in 2.0 mi WNW 8.1 mph - 0.00 in Snow Light Snow
4:22 AM -6.0 °F -18.6 °F -14.1 °F 68% 29.60 in 3.0 mi NW 5.8 mph - 0.00 in Snow Light Snow
4:53 AM -6.0 °F -18.6 °F -14.1 °F 68% 29.66 in 4.0 mi NW 5.8 mph - 0.01 in Snow Light Snow
5:14 AM -7.1 °F -15.9 °F -14.1 °F 72% 29.63 in 2.0 mi NW 3.5 mph - 0.00 in Snow Light Snow
5:31 AM -7.1 °F -22.8 °F -14.1 °F 72% 29.64 in 2.0 mi NW 8.1 mph - 0.00 in Snow Light Snow
5:38 AM -7.1 °F -22.8 °F -14.1 °F 72% 29.64 in 1.5 mi NW 8.1 mph - 0.00 in Snow Light Snow
5:51 AM -7.6 °F -22.1 °F -14.8 °F 71% 29.65 in 2.0 mi NW 6.9 mph - 0.01 in Snow Light Snow
5:53 AM -7.1 °F -23.9 °F -14.1 °F 72% 29.70 in 2.5 mi NNW 9.2 mph - 0.01 in Snow Light Snow
6:01 AM -7.1 °F -25.0 °F -14.1 °F 72% 29.66 in 5.0 mi NNW 10.4 mph - 0.00 in Snow Light Snow
6:53 AM -7.1 °F -19.9 °F -14.1 °F 72% 29.75 in 2.5 mi Variable 5.8 mph - 0.00 in Snow Light Snow
7:38 AM -7.1 °F -15.9 °F -14.1 °F 72% 29.72 in 4.0 mi NNW 3.5 mph - 0.01 in Snow Light Snow
7:53 AM -7.1 °F - -14.1 °F 72% 29.78 in 5.0 mi Calm Calm - 0.01 in Snow Light Snow
8:53 AM -8.0 °F -22.5 °F -16.1 °F 68% 29.81 in 4.0 mi NW 6.9 mph - 0.00 in Snow Light Snow
9:53 AM -8.0 °F -25.0 °F -16.1 °F 68% 29.84 in 7.0 mi NNW 9.2 mph - 0.00 in   Overcast
10:53 AM -8.0 °F -21.0 °F -16.1 °F 68% 29.88 in 4.0 mi NW 5.8 mph - 0.00 in Snow Light Snow
11:53 AM -8.0 °F -21.0 °F -16.1 °F 68% 29.92 in 2.5 mi NW 5.8 mph - 0.01 in Snow Light Snow
12:05 PM -8.0 °F -16.9 °F -15.0 °F 71% 29.88 in 1.8 mi Variable 3.5 mph - 0.00 in Snow Light Snow
12:37 PM -8.0 °F -22.5 °F -16.1 °F 68% 29.90 in 1.2 mi WNW 6.9 mph - 0.00 in Snow Light Snow
12:53 PM -8.0 °F -21.0 °F -16.1 °F 68% 29.96 in 1.5 mi WNW 5.8 mph - 0.00 in Snow Light Snow
1:11 PM -8.0 °F -21.0 °F -16.1 °F 68% 29.92 in 2.0 mi NW 5.8 mph - 0.01 in   Haze
1:53 PM -8.0 °F -21.0 °F -15.0 °F 71% 29.99 in 2.5 mi NW 5.8 mph - 0.01 in   Haze
2:03 PM -8.0 °F -21.0 °F -15.0 °F 71% 29.94 in 3.0 mi WNW 5.8 mph - N/A   Haze
2:27 PM -8.0 °F -22.5 °F -15.0 °F 71% 29.95 in 2.5 mi WNW 6.9 mph - N/A   Haze
2:38 PM -8.0 °F -21.0 °F -16.1 °F 68% 29.96 in 3.0 mi NW 5.8 mph - N/A   Haze
2:53 PM -8.0 °F -21.0 °F -15.0 °F 71% 30.01 in 4.0 mi WNW 5.8 mph - N/A   Haze
3:53 PM -8.0 °F -16.9 °F -14.1 °F 75% 30.04 in 3.0 mi Variable 3.5 mph - N/A   Haze
4:53 PM -8.0 °F -21.0 °F -15.0 °F 71% 30.07 in 5.0 mi Variable 5.8 mph - N/A   Haze
5:53 PM -8.0 °F -16.9 °F -14.1 °F 75% 30.10 in 5.0 mi West 3.5 mph - N/A   Haze
6:53 PM -9.0 °F -20.4 °F -14.1 °F 79% 30.13 in 9.0 mi WNW 4.6 mph - N/A   Overcast
7:53 PM -9.0 °F -20.4 °F -15.0 °F 75% 30.16 in 9.0 mi West 4.6 mph - N/A   Overcast
8:53 PM -11.0 °F -22.8 °F -16.1 °F 78% 30.19 in 10.0 mi SW 4.6 mph - N/A   Overcast
9:53 PM -11.0 °F -20.4 °F -16.1 °F 78% 30.22 in 10.0 mi NW 3.5 mph - N/A   Clear
10:53 PM -14.1 °F -23.9 °F -20.0 °F 75% 30.24 in 10.0 mi West 3.5 mph - N/A   Clear
11:53 PM -20.0 °F -30.7 °F -26.0 °F 74% 30.26 in 10.0 mi WNW 3.5 mph - N/A   Clear